Location: Azereix
(43.2167°N, 0.0167°W)
Time: 11:43:03
(UTC+00:00)

Daily predictions for brighter satellites

Satellite Brightness Start Highest point End
(mag) Time Altitude Azimuth Time Altitude Azimuth Time Altitude Azimuth
Cosmos 2369 4.4 16:48:00 10° N 16:53:08 33° NE 16:58:15 10° ESE
Cosmos 1842 Rocket 3.8 16:50:46 10° S 16:55:13 82° W 16:59:44 10° N
USA 234 3.4 16:49:30 10° ESE 16:55:50 54° NNE 17:02:09 10° NW
CZ-4C R/B 3.6 16:50:48 10° NNW 16:57:00 32° NE 17:04:07 10° E
Cosmos 1092 Rocket 4.3 16:52:42 10° N 16:58:49 48° ENE 17:04:53 10° SSE
Cosmos 2084 3.5 16:54:44 10° NNW 16:59:02 69° NE 17:03:31 10° SE
Cosmos 1812 4.4 16:57:12 10° ESE 16:59:25 15° E 17:01:37 10° NE
NOSS 3-1 (A) 4.1 16:52:00 10° NW 16:59:36 74° NE 17:08:25 10° SE
NOSS 3-1 (C) 4.5 16:52:04 10° NW 16:59:43 77° WSW 17:08:35 10° SSE
SL-16 R/B 4.0 17:00:18 10° NNE 17:01:47 11° NE 17:03:15 10° NE
ISS -2.5 16:58:58 10° NW 17:01:54 26° NNE 17:04:49 10° ENE
Meteor 1-25 Rocket 4.3 16:58:59 10° N 17:04:29 57° ENE 17:10:00 10° SSE
SMAP 3.2 17:00:09 10° SSE 17:04:40 53° ENE 17:09:12 10° N
Cosmos 2082 Rocket 3.0 16:59:42 10° SSE 17:04:44 33° ESE 17:09:45 10° NE
Meteor PRIRODA 3.7 17:01:43 10° SSE 17:05:21 84° WSW 17:08:59 10° NNW
Cosmos 1939 Rocket 3.0 17:01:51 10° SSE 17:05:54 57° ENE 17:09:54 10° N
CORIOLIS 4.3 17:02:25 10° SE 17:07:38 53° ENE 17:12:54 10° N
NOAA 12 4.2 17:05:30 10° SSE 17:10:50 88° WSW 17:16:12 10° NNW
CZ-4B DEB 4.4 17:08:42 10° SE 17:14:01 52° ENE 17:19:20 10° N
Cosmos 1602 3.8 17:14:10 10° N 17:17:57 54° E 17:21:45 10° SSE
AQUARIUS 4.2 17:14:09 10° SSE 17:18:34 61° ENE 17:23:01 10° N
Cosmos 540 Rocket 3.4 17:14:39 10° S 17:19:41 66° ESE 17:24:46 10° NNE
Cosmos 1627 Rocket 4.5 17:14:14 10° N 17:20:19 59° E 17:26:20 10° SSE
Cosmos 2034 Rocket 4.3 17:14:55 10° SSW 17:21:02 71° W 17:27:12 10° N
ARGOS 4.0 17:19:47 10° ESE 17:24:20 28° ENE 17:28:53 10° N
Cosmos 2279 Rocket 4.5 17:19:14 10° SSE 17:24:51 37° E 17:30:28 10° NNE
COSMOS 2406 3.2 17:19:33 10° SSW 17:25:18 82° ESE 17:31:04 10° NNE
Cosmos 1833 Rocket 2.9 17:21:01 10° SSW 17:26:37 76° WNW 17:32:17 10° NNE
COSMO-SKYMED 1 3.5 17:23:36 10° NE 17:27:19 27° E 17:31:00 10° SSE
Cosmos 1782 2.8 17:24:20 10° S 17:28:15 57° E 17:32:11 10° NNE
ATLAS 5 CENTAUR R/B 3.6 17:24:59 10° NW 17:31:10 22° N 17:33:09 16° NE
Meteor 2-21 4.4 17:25:16 10° N 17:31:19 63° E 17:37:17 10° SSE
CZ-2C R/B 3.9 17:32:33 10° SSE 17:32:49 10° SSE 17:33:07 10° SSE
Cosmos 1633 Rocket 3.8 17:31:59 10° NNE 17:35:52 30° ENE 17:39:45 10° SE
CZ-2D R/B 3.2 17:35:35 10° SSE 17:39:21 62° ENE 17:43:09 10° N
Cosmos 1898 Rocket 3.9 17:34:47 10° NNW 17:40:00 67° WSW 17:45:08 10° S
Cosmos 1634 Rocket 4.0 17:35:22 10° S 17:41:40 80° E 17:48:02 10° N
COSMOS 2455 2.8 17:36:32 10° SSW 17:42:32 81° ESE 17:48:14 12° NNE
PAYLOAD B 4.2 17:38:14 10° SSE 17:43:48 72° ENE 17:49:24 10° N
CZ-4B R/B 3.2 17:41:08 10° SE 17:46:23 52° ENE 17:51:34 10° N
CZ-2C R/B 2.8 17:41:50 10° NNE 17:46:51 47° E 17:51:49 10° S
Cosmos 1151 Rocket 3.2 17:43:06 10° SSE 17:47:16 50° E 17:51:27 10° NNE
Cosmos 1500 3.0 17:43:44 10° N 17:47:29 80° E 17:51:12 10° S
Cosmos 2026 Rocket 4.0 17:42:59 10° N 17:49:09 87° W 17:55:12 10° S
Lacrosse 5 rocket 2.7 17:47:10 10° NNW 17:50:13 21° NNE 17:50:36 21° NE
Okean O Rocket 2.0 17:46:19 10° SE 17:50:28 41° ENE 17:54:40 10° N
Meteor 2-14 Rocket 4.5 17:48:18 10° N 17:54:26 86° W 18:00:30 10° S
Cosmos 2208 Rocket 4.3 17:53:17 10° S 17:58:25 48° ESE 18:01:39 22° NE
Cosmos 1666 Rocket 3.4 17:57:21 10° N 18:01:49 71° E 18:06:11 10° SSE
H-2A R/B 2.0 17:57:18 10° SSE 18:02:30 86° WSW 18:07:35 10° NNW
NOSS 2-2 (C) 4.4 17:57:11 10° NW 18:02:34 84° NE 18:10:13 10° SE
Meteor 1-11 Rocket 4.4 17:58:52 10° N 18:03:48 31° ENE 18:05:46 25° ESE
Cosmos 1328 Rocket 3.6 18:00:27 10° S 18:04:47 55° E 18:07:30 22° NNE
Cosmos 1470 Rocket 4.1 18:00:51 10° N 18:04:59 36° ENE 18:09:07 10° SE
USA 267 4.0 18:01:03 17° NE 18:05:52 45° NNW 18:12:00 10° W
Cosmos 1655 Rocket 4.3 18:01:05 10° N 18:07:10 44° ENE 18:13:10 10° SSE
USA 305 4.4 18:05:13 10° NW 18:08:28 21° N 18:08:46 21° NNE
Cosmos 2360 Rocket 4.0 18:05:36 10° N 18:07:10 14° NNE 18:07:10 14° NNE
Landsat 5 3.5 18:08:42 38° NE 18:09:55 53° E 18:13:48 10° S
Cosmos 2180 Rocket 4.4 18:07:11 10° S 18:13:28 69° E 18:19:43 10° NNE
Cosmos 841 Rocket 4.1 18:08:50 10° SW 18:13:53 54° WNW 18:18:54 10° NNE
SKYMED 2 3.5 18:12:01 16° NNE 18:15:33 90° ESE 18:19:52 10° SSW
Feng Yun 1-1 Rocket 4.5 18:10:07 10° SE 18:15:49 52° ENE 18:21:29 10° N
Cosmos 1666 2.6 18:13:13 10° N 18:16:57 84° W 18:20:39 10° S
Meteor 2-8 Rocket 4.3 18:10:57 10° S 18:17:03 71° E 18:23:12 10° NNE
ATLAS CENTAUR R/B 3.6 18:09:54 10° WSW 18:18:20 40° NW 18:20:44 23° NNE
Cosmos 1125 Rocket 4.1 18:18:09 10° N 18:22:14 36° NE 18:22:14 36° NE
SL-24 R/B - RUBIN 2 4.0 18:22:16 10° NW 18:26:39 58° WSW 18:30:52 10° SSE
Cosmos 2322 Rocket 3.3 18:24:18 10° N 18:27:49 27° NNE 18:27:49 27° NNE
SL-08 RB Rocket 3.6 18:29:02 10° SSE 18:33:40 80° ENE 18:38:18 10° N
Cosmos 1812 4.2 18:31:13 10° SW 18:34:47 37° WNW 18:37:47 14° NNW
Cosmos 1980 Rocket 2.9 18:29:54 10° NNW 18:35:24 54° WSW 18:40:50 10° S
USA 234 4.0 18:32:31 10° SSE 18:38:51 52° SW 18:45:12 10° WNW
ISS -2.6 18:35:36 10° WNW 18:37:58 42° WNW 18:37:58 42° WNW
deb Chang Zheng 4 4.4 18:35:35 10° S 18:39:45 50° W 18:43:58 10° NNW
CZ-4C R/B 3.1 18:38:54 10° NW 18:46:20 82° SW 18:54:53 10° SSE
Cosmos 1515 Rocket 3.9 18:42:33 10° S 18:46:04 56° S 18:46:04 56° S
SL-16 R/B 2.5 18:41:40 10° NNW 18:46:11 47° NNE 18:46:11 47° NNE
Cosmos 2082 Rocket 3.4 18:43:27 10° SW 18:48:43 38° WNW 18:52:36 17° N
Cosmos 44 Rocket 3.6 18:49:13 10° NNW 18:53:09 57° NNW 18:53:09 57° NNW
Cosmos 2333 Rocket 4.5 18:54:10 10° N 18:54:26 11° N 18:54:26 11° N
COSMO-SKYMED 1 4.4 19:00:37 15° NNW 19:03:26 28° WNW 19:07:08 10° SW
ARGOS 4.4 18:59:18 10° SSW 19:04:24 41° W 19:09:31 10° NNW
Meteor 1-27 Rocket 4.1 19:02:42 10° S 19:06:41 49° S 19:06:41 49° S
DMSP B5D2-2 4.3 19:10:16 66° SW 19:10:16 66° SW 19:14:48 10° SSW
Cosmos 2298 Rocket 4.2 19:04:39 10° NNW 19:09:28 68° WNW 19:09:28 68° WNW
Cosmos 921 Rocket 4.3 19:06:35 10° SW 19:09:34 37° WSW 19:09:34 37° WSW
CZ-2C R/B 3.8 19:08:26 10° SW 19:09:35 15° SSW 19:09:35 15° SSW
Cosmos 2266 Rocket 4.4 19:09:57 10° NNW 19:16:14 62° W 19:22:31 10° S
GEOS 3 Rocket 4.2 19:19:06 50° NW 19:19:06 50° NW 19:22:54 10° NW
Cosmos 1818 4.0 19:14:43 10° NW 19:19:33 59° W 19:19:33 59° W
Okean O Rocket 4.2 19:23:42 10° SW 19:26:58 20° W 19:30:15 10° NW
Lacrosse 5 rocket 4.1 19:25:41 10° NW 19:26:13 14° NW 19:26:13 14° NW
BREEZE-M DEB (TANK) 4.2 19:21:10 10° SW 19:44:38 82° NW 19:44:57 80° N
Cosmos 2322 Rocket 4.5 20:08:11 10° NW 20:09:40 18° NW 20:09:40 18° NW
